Home > Weather > Essen > Past weeks

Flag for Germany Past Weather in Essen, North Rhine-Westphalia, Germany — Yesterday and Last 2 Weeks

Now
66 °F

Clear.


Feels Like: 66 °F
Forecast: 60 / 73 °F
Wind: 6 mph from West

Location: Duesseldorf

Current Time: Jul 29, 2016 at 12:27:58 AM

Latest Report: Jul 28, 2016 at 11:50 PM


Visibility: 10 mi

Pressure: 29.95 "Hg

Humidity: 68%

Dew Point: 55 °F

Location of EssenLocation

Past Weather in Essen — Graph

°F

Essen Temperature Yesterday

Maximum temperature yesterday: 75 °F (at 4:20 PM)
Minimum temperature yesterday: 63 °F (at 3:50 AM)
Average temperature yesterday: 68 °F

High & Low Weather Summary for the Past Weeks

 TemperatureHumidityPressure
High95 °F (Jul 20, 4:20 PM)100% (Jul 14, 3:20 AM)30.30 "Hg (Jul 14, 3:20 AM)
Low46 °F (Jul 14, 4:20 AM)30% (Jul 20, 2:50 PM)29.83 "Hg (Jul 20, 5:20 PM)
Average70 °F72%30.09 "Hg
* Reported Jul 13 11:20 PM — Jul 28 11:20 PM, Essen, Weather by CustomWeather, © 2016

Note: Actual official high and low records may vary slightly from our data, if they occured in-between our weather recording intervals... More about our weather records

Advertising

Essen Weather History for the Previous 24 Hours

Scroll right to see more
 ConditionsComfort  
Time TempWeatherWind HumidityBarometerVisibility
11:20 PM
Thu, Jul 28
66 °FClear.6 mph68%29.95 "Hg10 mi
10:50 PM68 °FClear.6 mph64%29.92 "Hg10 mi
10:20 PM68 °FPartly sunny.6 mph69%29.92 "HgN/A
9:50 PM68 °FPartly sunny.5 mph69%29.92 "HgN/A
9:20 PM70 °FScattered clouds.7 mph60%29.92 "HgN/A
8:50 PM72 °FScattered clouds.8 mph61%29.92 "HgN/A
8:20 PM73 °FScattered clouds.13 mph57%29.92 "HgN/A
7:50 PM73 °FScattered clouds.10 mph61%29.92 "HgN/A
7:20 PM73 °FPartly sunny.9 mph61%29.92 "HgN/A
6:50 PM75 °FScattered clouds.10 mph57%29.92 "HgN/A
6:20 PM73 °FScattered clouds.9 mph61%29.92 "HgN/A
5:50 PM75 °FScattered clouds.9 mph61%29.92 "HgN/A
5:20 PM75 °FScattered clouds.13 mph61%29.92 "HgN/A
4:50 PM75 °FScattered clouds.12 mph61%29.92 "HgN/A
4:20 PM75 °FScattered clouds.12 mph65%29.92 "HgN/A
3:50 PM73 °FBroken clouds.12 mph69%29.95 "HgN/A
3:20 PM72 °FBroken clouds.10 mph73%29.95 "HgN/A
2:50 PM72 °FBroken clouds.10 mph69%29.95 "HgN/A
2:20 PM72 °FBroken clouds.13 mph73%29.95 "HgN/A
1:50 PM70 °FBroken clouds.10 mph83%29.98 "HgN/A
1:20 PM68 °FBroken clouds.13 mph88%29.98 "HgN/A
12:50 PM68 °FBroken clouds.12 mph88%29.98 "HgN/A
12:20 PM66 °FBroken clouds.10 mph94%29.98 "HgN/A
11:50 AM66 °FLight rain. Partly sunny.12 mph88%29.98 "HgN/A
11:20 AM66 °FPartly sunny.10 mph88%29.98 "HgN/A
10:50 AM64 °FDrizzle. Partly sunny.9 mph100%29.98 "HgN/A
10:20 AM64 °FLight rain. Partly sunny.9 mph94%29.98 "Hg6 mi
9:50 AM64 °FPartly sunny.8 mph94%29.98 "HgN/A
9:20 AM64 °FDrizzle. Partly sunny.9 mph94%29.98 "Hg4 mi
8:50 AM64 °FLight rain. Partly sunny.9 mph94%29.98 "Hg6 mi
8:20 AM64 °FLight rain. Broken clouds.7 mph94%29.98 "HgN/A
7:50 AM64 °FBroken clouds.7 mph94%29.98 "HgN/A
7:20 AM64 °FLight rain. Broken clouds.5 mph94%29.98 "HgN/A
6:50 AM64 °FLight rain. Partly cloudy.5 mph94%29.98 "HgN/A
6:20 AM64 °FLight rain. Passing clouds.6 mph94%30.01 "Hg6 mi
5:50 AM64 °FLight rain. Passing clouds.5 mph94%30.01 "Hg4 mi
5:20 AM64 °FLight rain. Partly cloudy.5 mph94%30.01 "HgN/A
4:50 AM63 °FLight rain. Passing clouds.2 mph100%30.01 "HgN/A
4:20 AM63 °FLight rain. Partly cloudy.3 mph100%30.01 "HgN/A
3:50 AM63 °FLight rain. Partly cloudy.12 mph100%30.01 "Hg4 mi
3:20 AM64 °FPassing clouds.6 mph88%30.01 "HgN/A
2:50 AM64 °FLight rain. Passing clouds.6 mph88%30.01 "HgN/A
2:20 AM64 °FLight rain. Partly cloudy.8 mph88%30.01 "HgN/A
1:50 AM66 °FLight rain. Passing clouds.9 mph78%30.01 "HgN/A
1:20 AM66 °FLight rain. Passing clouds.5 mph78%30.01 "HgN/A
12:50 AM68 °FPartly cloudy.6 mph73%30.04 "HgN/A
12:20 AM68 °FPassing clouds.6 mph69%30.04 "HgN/A
Weather by CustomWeather, © 2016

See weather overviewHow to use our weather pages